Temperature
11 10 10 10 10 10 10 10 9 9 9 9 9 9 9 9 8 8 8 8 7 7 6 6 5 5 5 5 4 4 3 3 2 2 2 1 1 0
10 10 10 10 10 9 9 9 9 9 9 9 9 9 8 8 8 7 7 7 7 6 6 5 5 5 4 4 4 3 3 2 2 1 1 1 0 -0
10 10 10 10 9 9 9 9 9 9 8 9 8 8 8 7 7 7 7 6 6 6 5 5 4 4 4 3 3 2 2 2 1 1 0 0 -0 -1
10 9 9 9 9 9 9 9 9 8 8 8 8 7 7 7 7 6 6 6 6 5 5 4 4 3 3 2 2 2 1 1 1 0 -0 -1 -1 -1
9 9 9 9 9 9 8 8 8 8 8 7 7 7 7 6 6 6 6 5 5 5 4 4 3 3 2 2 2 1 1 0 -0 -1 -1 -1 -2 -2
9 9 9 8 8 8 8 8 8 7 7 7 7 6 6 6 5 5 5 5 4 4 4 3 3 2 2 2 1 1 0 -0 -1 -1 -2 -2 -2 -2
9 8 8 8 8 8 8 8 7 7 7 7 6 6 6 5 5 5 4 4 4 3 3 3 2 2 2 1 1 0 -1 -1 -1 -2 -2 -2 -3 -3
8 8 8 8 8 8 7 7 7 7 7 6 6 6 5 5 5 4 4 3 3 2 2 2 1 1 1 1 0 -1 -1 -2 -2 -2 -3 -3 -3 -3
8 8 8 8 7 7 7 7 7 6 6 6 6 5 5 5 4 4 3 3 2 2 2 1 1 1 1 0 -1 -1 -2 -2 -2 -3 -3 -3 -4 -4
7 7 7 7 7 7 7 6 6 6 6 5 5 5 4 4 4 3 3 2 2 1 1 0 1 0 0 -0 -1 -1 -2 -2 -3 -3 -3 -4 -4 -4
7 7 7 7 7 6 6 6 6 5 5 5 4 4 4 3 3 3 2 1 1 1 0 -0 -0 -1 -1 -1 -1 -2 -2 -3 -3 -3 -4 -4 -4 -4
6 6 6 6 6 6 6 5 5 5 5 4 4 3 3 3 2 2 1 1 0 -0 -1 -1 -1 -2 -2 -2 -2 -3 -3 -3 -3 -4 -4 -4 -5 -5
6 6 6 6 6 5 5 5 5 4 4 4 3 3 2 2 2 1 1 0 -0 -1 -1 -2 -2 -3 -4 -4 -3 -3 -3 -3 -4 -4 -4 -4 -5 -5
5 5 5 5 5 5 4 4 4 4 3 3 2 2 2 1 1 1 -0 -0 -1 -1 -2 -2 -3 -3 -4 -4 -4 -3 -3 -4 -4 -4 -4 -5 -5 -5
4 4 4 4 4 4 4 3 3 3 2 2 2 1 1 0 -0 -1 -1 -1 -2 -2 -3 -3 -3 -4 -4 -5 -5 -4 -4 -4 -4 -4 -5 -5 -5 -5
4 4 3 3 3 3 3 2 2 2 2 1 1 0 -0 -1 -1 -1 -2 -2 -2 -3 -3 -3 -4 -4 -4 -5 -5 -5 -5 -5 -5 -5 -5 -5 -5 -5
3 3 2 2 2 2 2 1 1 1 1 0 -0 -0 -1 -1 -2 -2 -2 -3 -3 -3 -4 -4 -4 -4 -5 -5 -5 -5 -5 -5 -5 -5 -6 -5 -5 -5
2 2 2 1 1 1 1 1 0 0 -0 -1 -1 -1 -2 -2 -3 -3 -3 -3 -4 -4 -4 -5 -5 -5 -5 -5 -5 -5 -6 -6 -6 -6 -6 -6 -5 -5
2 1 1 1 1 0 0 -0 -1 -1 -1 -2 -2 -2 -3 -3 -3 -4 -4 -4 -5 -5 -5 -5 -6 -6 -6 -6 -5 -6 -6 -6 -6 -6 -6 -6 -6 -6
1 1 1 0 -0 -0 -1 -1 -1 -2 -2 -2 -3 -3 -3 -4 -4 -4 -4 -5 -5 -5 -5 -6 -6 -6 -7 -7 -7 -5 -6 -7 -7 -7 -7 -6 -6 -6
0 0 -0 -0 -1 -1 -1 -2 -2 -2 -2 -3 -3 -3 -4 -4 -4 -5 -5 -5 -6 -6 -6 -6 -6 -6 -7 -7 -7 -6 -6 -7 -7 -7 -7 -7 -7 -6
-0 -1 -1 -1 -1 -1 -2 -2 -2 -2 -3 -3 -3 -4 -4 -5 -5 -5 -6 -6 -6 -6 -6 -6 -6 -7 -7 -7 -7 -7 -6 -6 -6 -7 -7 -7 -8 -8
-1 -1 -1 -2 -2 -2 -2 -2 -3 -3 -3 -3 -4 -4 -5 -5 -6 -6 -6 -6 -6 -7 -7 -7 -7 -7 -7 -7 -7 -7 -7 -7 -6 -6 -6 -7 -7 -7
Wind_Speed
14 13 11 9 8 8 7 6 7 7 8 7 5 6 7 7 10 10 9 12 13 13 13 12 12 11 11 12 12 13 13 14 14 15 16 17 17 17
11 13 12 9 8 7 7 6 7 8 7 6 5 4 5 6 9 9 9 11 12 13 13 12 12 12 12 12 12 12 13 13 13 15 16 16 16 17
12 13 14 10 8 7 7 6 7 7 9 6 3 3 5 5 5 6 7 7 9 13 13 13 12 12 12 11 11 12 12 13 13 14 15 16 16 17
14 14 14 11 11 9 8 9 8 7 7 8 4 3 4 5 5 5 5 6 6 10 13 12 12 12 11 11 12 12 12 12 12 13 14 15 16 17
14 14 14 13 13 10 10 9 8 7 6 6 6 3 2 3 3 3 4 3 5 7 10 11 12 12 12 12 11 11 11 11 12 13 14 14 15 16
12 12 13 14 13 12 11 11 9 8 7 6 6 4 3 2 3 3 3 4 4 4 6 8 10 12 12 12 12 11 11 11 12 13 13 14 15 16
11 11 11 13 14 12 10 9 9 8 7 6 6 4 4 3 4 4 5 3 4 3 3 5 5 6 7 11 11 11 11 12 13 13 14 14 15 16
11 10 10 12 13 14 14 13 13 11 10 8 7 7 8 6 5 4 4 3 4 3 3 5 4 5 5 6 10 11 11 12 13 13 14 14 15 16
9 8 7 9 11 10 11 12 12 13 13 10 9 9 7 7 6 6 6 5 5 3 2 5 4 6 5 7 11 11 12 12 12 13 14 14 15 16
8 8 8 8 8 8 8 8 8 8 9 8 8 8 6 6 7 7 6 4 1 2 3 3 3 4 4 5 10 11 11 11 12 13 14 14 15 16
5 6 8 8 9 10 8 8 6 5 5 6 6 6 7 7 6 4 4 3 3 3 2 2 2 2 3 4 6 8 9 10 12 13 13 14 15 15
4 5 8 8 10 11 9 9 8 6 5 5 4 4 4 5 6 6 6 4 2 2 2 2 1 1 2 3 3 4 6 10 13 13 14 15 15 9
4 4 5 8 10 11 9 8 8 6 6 5 4 3 3 3 3 3 4 4 4 3 3 2 1 1 2 3 4 4 4 5 6 9 12 14 14 11
5 4 5 8 9 10 8 7 9 8 5 5 4 4 3 3 3 3 3 2 3 3 4 3 3 3 2 3 4 4 4 5 5 6 6 11 12 14
4 5 6 8 8 7 8 9 8 6 5 5 5 4 3 4 3 3 3 2 1 1 3 3 3 3 3 4 4 4 4 5 4 4 5 6 6 7
3 5 7 7 6 6 7 6 5 5 5 5 4 3 3 3 3 3 3 2 1 1 2 3 4 4 4 5 5 6 5 4 5 6 7 7 6 6
4 3 3 3 4 3 3 4 4 4 4 4 4 4 4 4 3 2 2 2 2 2 1 1 2 3 4 5 5 6 6 6 6 6 6 7 7 6
5 4 4 4 4 5 5 4 4 4 4 4 4 4 4 3 3 2 2 2 2 2 2 2 1 2 2 3 7 6 5 5 5 6 5 7 8 7
4 4 4 5 4 5 5 5 4 4 4 4 4 4 4 3 3 2 2 2 2 2 2 2 1 1 2 4 4 6 4 5 5 6 6 6 8 8
3 4 4 4 4 5 5 5 5 5 4 4 4 4 3 3 3 2 2 2 2 2 2 2 2 3 4 4 4 5 7 6 5 6 6 6 6 9
2 3 3 4 4 5 5 5 5 5 5 4 4 4 3 3 3 2 2 3 2 2 3 3 4 5 2 2 3 4 4 7 8 6 6 6 6 5
2 3 3 4 4 5 5 5 5 5 5 5 4 4 3 3 3 3 2 2 2 2 3 3 3 2 1 3 5 6 6 6 8 10 9 7 4 4
2 3 3 4 5 5 5 6 6 5 5 5 4 4 4 3 3 2 2 2 2 2 2 2 2 2 2 3 4 5 6 6 5 6 5 9 11 11
Wind_Direction
214 214 216 213 211 211 208 201 206 230 238 222 208 203 193 187 193 198 205 216 224 231 237 242 248 253 261 270 277 282 287 289 292 293 294 297 298 300
212 213 217 215 210 207 209 211 211 218 236 223 210 193 188 191 197 196 204 214 224 231 236 242 245 249 259 266 271 277 283 287 290 292 294 295 297 299
213 213 216 212 210 208 204 207 214 213 234 244 220 197 188 192 192 198 205 212 225 232 237 241 245 251 259 262 268 274 280 284 288 291 293 295 296 298
216 213 215 211 210 208 208 211 215 214 222 240 239 214 208 199 193 199 207 216 225 235 237 242 249 254 257 262 268 273 278 282 286 289 291 293 295 296
217 216 215 209 213 211 208 212 216 216 215 225 236 222 214 194 194 211 215 219 235 239 238 246 254 257 260 264 267 271 275 279 284 288 291 293 295 296
219 218 215 212 214 210 209 212 210 212 213 217 227 223 209 185 183 213 228 224 234 238 241 249 252 257 262 264 265 267 271 276 280 286 289 292 294 295
221 220 218 212 211 210 210 207 204 211 212 216 223 217 211 193 207 201 222 228 233 223 229 240 247 249 259 264 263 263 269 275 279 283 286 290 293 295
219 221 218 210 209 207 207 204 202 207 211 213 219 220 221 213 201 201 204 205 242 219 214 246 233 244 246 251 258 263 269 274 278 282 286 289 292 293
216 216 219 209 203 208 208 204 206 209 208 208 215 220 216 207 196 202 205 210 227 209 199 246 240 248 250 264 268 266 270 275 279 284 287 289 291 294
215 211 213 203 200 195 194 200 206 209 207 205 209 212 207 198 198 204 204 206 232 214 178 234 246 251 266 267 268 265 272 278 285 289 290 292 294 295
212 210 206 200 193 183 187 194 198 203 195 186 187 188 189 189 183 167 167 178 235 229 187 203 243 286 281 263 266 269 280 287 291 293 294 297 297 298
210 207 201 195 188 182 189 190 197 196 169 160 162 167 172 180 184 185 182 191 201 222 186 169 212 354 304 277 269 282 287 291 294 296 298 299 299 298
206 207 207 191 188 188 190 193 195 179 169 163 164 165 156 162 165 165 169 178 186 213 190 160 191 204 238 284 287 271 272 286 293 293 295 297 299 300
206 205 197 187 186 185 188 184 167 158 160 162 167 174 179 177 166 158 154 159 179 196 192 179 199 209 234 268 277 281 285 282 283 282 285 296 299 299
203 190 182 179 178 183 177 166 158 159 163 170 180 188 181 163 147 140 131 124 116 197 208 206 201 214 219 244 264 278 294 289 278 282 291 292 288 290
176 164 159 161 165 168 164 161 163 169 171 175 173 162 145 149 156 153 151 146 141 292 247 231 219 212 238 250 256 270 272 269 281 292 294 290 282 271
145 131 130 139 149 148 145 149 154 155 153 150 148 149 153 157 158 151 149 153 185 231 264 265 244 242 239 242 256 260 267 275 276 287 296 295 287 274
143 157 163 160 161 159 153 150 146 148 150 149 151 154 158 161 158 153 156 171 205 226 241 256 301 335 323 273 235 246 259 268 283 287 289 292 291 287
148 166 170 167 162 159 157 155 156 151 148 151 153 155 154 154 157 169 177 188 219 233 242 232 218 229 279 292 276 234 247 280 290 290 283 282 286 289
155 167 171 165 161 160 159 154 151 150 150 151 151 153 154 156 164 180 192 201 217 230 247 243 222 224 242 261 272 273 265 268 279 287 290 289 283 289
169 163 162 160 157 158 157 155 157 158 156 155 156 157 160 161 173 188 200 222 230 227 246 256 251 266 263 264 285 287 277 277 286 285 287 294 298 295
159 158 155 155 157 157 156 155 155 156 156 158 160 161 163 170 177 186 196 211 234 238 252 269 269 255 227 250 280 289 296 301 301 300 289 281 286 285
150 154 155 156 156 156 157 155 156 161 162 161 160 161 164 171 180 189 196 211 225 238 266 286 292 260 249 250 272 286 294 304 310 311 301 306 303 292
Height
1435 1438 1440 1442 1444 1446 1448 1451 1453 1452 1451 1452 1454 1455 1456 1456 1457 1457 1456 1456 1456 1455 1454 1454 1453 1452 1450 1448 1447 1445 1443 1441 1439 1437 1435 1433 1431 1429
1427 1429 1431 1434 1436 1438 1441 1443 1445 1445 1444 1445 1447 1448 1449 1450 1450 1450 1449 1449 1449 1448 1448 1447 1446 1444 1443 1441 1440 1438 1436 1434 1432 1430 1428 1426 1425 1423
1418 1420 1423 1426 1428 1430 1432 1434 1436 1438 1437 1438 1440 1441 1442 1442 1443 1443 1443 1442 1442 1441 1441 1440 1439 1438 1436 1435 1433 1431 1429 1427 1425 1423 1421 1420 1418 1416
1409 1412 1414 1417 1419 1422 1424 1426 1428 1430 1431 1431 1432 1434 1435 1435 1435 1435 1435 1435 1435 1434 1434 1433 1432 1431 1429 1428 1426 1424 1422 1420 1418 1416 1415 1413 1411 1409
1401 1403 1406 1408 1410 1413 1415 1417 1420 1422 1423 1424 1424 1426 1427 1428 1428 1428 1428 1428 1427 1427 1426 1426 1425 1424 1423 1421 1419 1417 1416 1414 1412 1410 1408 1406 1405 1403
1393 1395 1398 1400 1402 1405 1407 1409 1412 1414 1416 1416 1417 1418 1419 1420 1421 1420 1420 1420 1420 1420 1419 1419 1418 1417 1416 1414 1412 1410 1409 1407 1405 1403 1402 1400 1398 1396
1385 1387 1390 1392 1395 1397 1399 1401 1404 1406 1407 1409 1410 1411 1411 1412 1412 1413 1413 1413 1412 1412 1412 1411 1411 1409 1408 1407 1405 1403 1402 1400 1399 1397 1395 1394 1392 1390
1377 1380 1382 1385 1387 1390 1392 1394 1396 1398 1399 1401 1402 1402 1403 1404 1405 1406 1406 1406 1405 1405 1405 1404 1403 1402 1401 1399 1398 1397 1395 1394 1393 1391 1390 1388 1386 1384
1370 1373 1375 1376 1379 1382 1384 1386 1388 1390 1392 1394 1394 1395 1396 1397 1399 1399 1399 1398 1398 1398 1398 1396 1396 1394 1394 1392 1392 1391 1389 1388 1387 1385 1384 1382 1380 1378
1364 1365 1367 1369 1371 1374 1376 1378 1379 1382 1384 1386 1387 1388 1390 1391 1392 1393 1392 1392 1392 1392 1391 1390 1388 1388 1387 1386 1386 1385 1384 1382 1381 1379 1378 1376 1374 1372
1356 1358 1360 1362 1364 1366 1369 1370 1372 1374 1377 1379 1380 1381 1383 1384 1385 1386 1386 1386 1385 1385 1385 1384 1382 1381 1381 1380 1380 1379 1378 1377 1375 1373 1372 1370 1368 1365
1349 1351 1353 1355 1357 1359 1361 1363 1364 1366 1369 1371 1373 1374 1375 1376 1378 1379 1379 1380 1379 1379 1378 1379 1377 1377 1374 1373 1374 1373 1372 1371 1369 1367 1366 1364 1362 1359
1342 1344 1346 1348 1351 1353 1355 1356 1358 1360 1362 1364 1366 1367 1368 1369 1370 1372 1373 1374 1373 1373 1374 1373 1372 1372 1371 1369 1367 1367 1366 1365 1363 1361 1359 1358 1356 1354
1337 1338 1340 1343 1345 1347 1349 1351 1353 1355 1356 1357 1359 1360 1362 1363 1364 1366 1367 1368 1368 1368 1368 1368 1367 1367 1366 1364 1362 1361 1361 1359 1357 1355 1353 1352 1350 1348
1332 1334 1336 1337 1339 1342 1343 1345 1347 1348 1350 1352 1353 1354 1356 1357 1359 1360 1361 1362 1363 1363 1364 1363 1363 1363 1362 1360 1358 1356 1355 1353 1352 1350 1348 1346 1343 1341
1327 1329 1331 1332 1334 1336 1338 1339 1341 1343 1344 1346 1348 1350 1351 1353 1354 1355 1356 1357 1358 1358 1359 1359 1359 1358 1357 1356 1354 1352 1351 1349 1346 1345 1342 1340 1338 1336
1322 1324 1326 1327 1329 1331 1332 1334 1336 1338 1340 1342 1343 1345 1347 1348 1349 1351 1352 1353 1353 1354 1354 1355 1355 1354 1353 1352 1350 1348 1346 1345 1343 1340 1337 1334 1333 1331
1318 1319 1321 1322 1324 1326 1328 1330 1332 1334 1336 1338 1339 1341 1343 1344 1345 1347 1348 1349 1349 1350 1350 1350 1350 1349 1348 1347 1347 1344 1343 1340 1338 1336 1333 1330 1326 1326
1313 1314 1316 1318 1320 1322 1324 1326 1328 1331 1333 1335 1337 1338 1339 1341 1342 1343 1344 1345 1346 1346 1347 1347 1346 1345 1344 1342 1341 1341 1339 1336 1334 1331 1329 1326 1323 1321
1309 1311 1313 1315 1317 1319 1322 1323 1326 1328 1330 1332 1334 1335 1337 1338 1339 1340 1341 1342 1343 1343 1343 1343 1343 1343 1342 1341 1338 1336 1336 1333 1330 1327 1325 1322 1320 1318
1306 1308 1310 1312 1314 1317 1319 1321 1323 1325 1327 1329 1331 1333 1334 1335 1336 1337 1338 1339 1340 1340 1340 1340 1340 1341 1340 1338 1336 1333 1332 1330 1327 1325 1321 1318 1315 1312
1304 1306 1308 1310 1312 1314 1316 1318 1320 1322 1324 1326 1328 1330 1332 1333 1334 1335 1335 1336 1337 1337 1337 1338 1338 1337 1336 1335 1332 1330 1328 1326 1324 1322 1320 1317 1315 1311
1302 1303 1305 1308 1310 1312 1313 1315 1317 1319 1321 1323 1325 1327 1329 1330 1331 1332 1333 1333 1334 1334 1334 1334 1334 1334 1333 1332 1330 1328 1325 1323 1321 1318 1317 1315 1312 1310